Flag for Syria Weather past 2 weeks in Damascus, Syria

Now
70 °F

Sunny.


Feels Like: 70 °F
Forecast: 49 / 91 °F
Wind: 16 mph from Southwest

Location: Damascus Int. Airport

Current Time: May 23, 2015 at 9:47:23 AM

Latest Report: May 23, 2015 at 9:00 AM


Visibility: 10 mi

Pressure: 29.92 "Hg

Humidity: 53%

Dew point: 52 °F

Location of DamascusLocation

Historic Weather in Damascus — Graph

°F

Damascus temperature yesterday

Maximum temperature yesterday: 82 °F (at 2:00 PM)
Minimum temperature yesterday: 54 °F (at 6:00 AM)
Average temperature yesterday: 69 °F

Past Weeks' High & Low Weather Summary

 TemperatureHumidityPressure
High99 °F (May 19, 3:00 PM)88% (May 11, 5:00 AM)30.24 "Hg (May 11, 5:00 AM)
Low50 °F (May 13, 3:00 AM)7% (May 19, 2:00 PM)29.71 "Hg (May 9, 4:00 PM)
Average72 °F35%29.94 "Hg
* Reported May 8 9:00 AM — May 23 9:00 AM, Damascus, Weather by CustomWeather, © 2015

Note: Actual official high and low records may vary slightly from our data, if they occured in-between our weather recording intervals... More about our weather records

Advertising

Damascus weather history for previous 24 hours

 ConditionsComfort  
Time TempWeatherWind HumidityBarometerVisibility
9:00 AM
Sat, May 23
70 °FSunny.16 mph53%29.92 "Hg10 mi
8:00 AM70 °FSunny.12 mph46%29.92 "Hg10 mi
7:00 AM63 °FSunny.18 mph68%29.89 "Hg10 mi
6:00 AM63 °FClear.14 mph59%29.89 "Hg10 mi
5:00 AM63 °FClear.12 mph59%29.89 "Hg10 mi
4:00 AM64 °FClear.16 mph52%29.89 "Hg10 mi
3:00 AM63 °FClear.16 mph59%29.89 "Hg10 mi
2:00 AM64 °FClear.12 mph56%29.89 "Hg10 mi
1:00 AM63 °FClear.7 mph64%29.92 "Hg10 mi
12:00 AM66 °FClear.12 mph46%29.92 "Hg10 mi
11:00 PM
Fri, May 22
59 °FClear.14 mph68%29.92 "Hg10 mi
10:00 PM66 °FClear.16 mph52%29.89 "Hg10 mi
9:00 PM68 °FClear.18 mph46%29.89 "Hg10 mi
8:00 PM73 °FSunny.14 mph33%29.86 "Hg10 mi
7:00 PM75 °FSunny.18 mph29%29.86 "Hg10 mi
6:00 PM77 °FSunny.21 mph30%29.83 "Hg10 mi
5:00 PM81 °FSunny.18 mph24%29.83 "Hg10 mi
4:00 PM82 °FSunny.16 mph21%29.83 "Hg10 mi
3:00 PM82 °FSunny.12 mph20%29.83 "Hg10 mi
2:00 PM82 °FSunny.12 mph23%29.86 "Hg10 mi
1:00 PM81 °FSunny.12 mph21%29.89 "Hg10 mi
12:00 PM79 °FSunny.7 mph23%29.89 "Hg10 mi
11:00 AM75 °FSunny.No wind29%29.92 "Hg10 mi
10:00 AM72 °FSunny.5 mph41%29.92 "Hg10 mi
9:00 AM66 °FSunny.No wind56%29.92 "Hg10 mi
Weather by CustomWeather, © 2015

See weather overviewHow to use our weather pages